{"data":{"norad_id":54788,"intl_designator":"2022-175AG","name":"STARLINK-5399","alt_names":[],"object_type":"PAYLOAD","status":"ACTIVE","operator":null,"country":"US","launch_date":"2022-12-17","launch_site_code":"AFETR","launch_vehicle":null,"mission":null,"orbit_class":"UNKNOWN","rcs_meters":null,"size_class":null,"mass_kg":null,"dimensions":null,"purposes":["comms"],"wikipedia_slug":null,"has_3d_model":false,"image_url":null,"decayed_at":null,"tle_current":{"epoch":"2026-05-25T00:18:53.001216Z","epoch_age_seconds":84499,"freshness":"FRESH","line1":"1 54788U 22175AG  26145.01311344 -.00000142  00000+0  91547-5 0  9992","line2":"2 54788  53.2146  46.3592 0001562  86.7313 273.3857 15.08835691191659","mean_motion":15.08835691,"eccentricity":0.0001562,"inclination_deg":53.2146,"raan_deg":46.3592,"arg_perigee_deg":86.7313,"mean_anomaly_deg":273.3857,"bstar":9.1547e-6,"rev_number":19165,"period_min":95.437827232574,"perigee_km":538.67598491055,"apogee_km":540.83713485866,"semimajor_km":6917.8935598846,"source":"CELESTRAK","updated_at":"2026-05-25T13:38:17.694018Z"}}}